• In Deutschland
  • Länderverzeichnis
  • Für 7 Tage
  • Wassertemperatur
  • Satellitenkarten
  • Wetterkarte
  • Widgets
  • user-avatar
    Anmelden

    Stündliche Wetter Baltschik

    Heute, 20 August, Sonntag

    Zeit Temperatur Niederschläge Wind Luftdruck Luftfeuchtigkeit
    00:00 +21°C° 0 mm 2 m/S 739 mmHg 61%
    01:00 +20°C° 0 mm 2 m/S 739 mmHg 61%
    02:00 +20°C° 0 mm 2 m/S 738 mmHg 59%
    03:00 +19°C° 0 mm 2 m/S 738 mmHg 60%
    04:00 +19°C° 0 mm 2 m/S 738 mmHg 61%
    05:00 +19°C° 0 mm 3 m/S 738 mmHg 61%
    06:00 +21°C° 0 mm 3 m/S 738 mmHg 56%
    07:00 +24°C° 0 mm 3 m/S 739 mmHg 51%
    08:00 +26°C° 0 mm 3 m/S 739 mmHg 46%
    09:00 +28°C° 0 mm 3 m/S 739 mmHg 42%
    10:00 +29°C° 0 mm 4 m/S 739 mmHg 39%
    11:00 +32°C° 0 mm 4 m/S 739 mmHg 35%
    12:00 +33°C° 0 mm 4 m/S 738 mmHg 35%
    13:00 +33°C° 0 mm 4 m/S 738 mmHg 35%
    14:00 +34°C° 0 mm 4 m/S 738 mmHg 35%
    15:00 +33°C° 0 mm 4 m/S 737 mmHg 38%
    16:00 +33°C° 0 mm 4 m/S 737 mmHg 41%
    17:00 +32°C° 0 mm 4 m/S 737 mmHg 44%
    18:00 +29°C° 0 mm 4 m/S 737 mmHg 54%
    19:00 +26°C° 0 mm 3 m/S 736 mmHg 64%
    20:00 +24°C° 0 mm 2 m/S 736 mmHg 75%
    21:00 +23°C° 0 mm 2 m/S 736 mmHg 80%
    22:00 +23°C° 0 mm 2 m/S 736 mmHg 84%
    23:00 +22°C° 0 mm 1 m/S 736 mmHg 89%

    Morgen, 21 August, Montag

    Zeit Temperatur Niederschläge Wind Luftdruck Luftfeuchtigkeit
    00:00 +22°C° 0 mm 1 m/S 736 mmHg 90%
    01:00 +21°C° 0 mm 1 m/S 736 mmHg 90%
    02:00 +19°C° 0 mm 0 m/S 736 mmHg 90%
    03:00 +21°C° 0 mm 1 m/S 736 mmHg 90%
    04:00 +21°C° 0 mm 1 m/S 735 mmHg 90%
    05:00 +20°C° 0 mm 1 m/S 735 mmHg 90%
    06:00 +21°C° 0 mm 2 m/S 735 mmHg 82%
    07:00 +24°C° 0 mm 2 m/S 736 mmHg 74%
    08:00 +25°C° 0 mm 3 m/S 736 mmHg 66%
    09:00 +26°C° 0,1 mm 3 m/S 736 mmHg 59%
    10:00 +28°C° 0,1 mm 3 m/S 736 mmHg 52%
    11:00 +29°C° 0,1 mm 3 m/S 736 mmHg 45%
    12:00 +30°C° 0,1 mm 3 m/S 735 mmHg 42%
    13:00 +30°C° 0,1 mm 3 m/S 735 mmHg 40%
    14:00 +31°C° 0,1 mm 3 m/S 735 mmHg 38%
    15:00 +30°C° 0 mm 3 m/S 735 mmHg 39%
    16:00 +30°C° 0 mm 2 m/S 734 mmHg 40%
    17:00 +30°C° 0 mm 2 m/S 734 mmHg 41%
    18:00 +28°C° 0 mm 3 m/S 734 mmHg 47%
    19:00 +26°C° 0 mm 3 m/S 735 mmHg 53%
    20:00 +25°C° 0 mm 4 m/S 735 mmHg 58%
    21:00 +22°C° 0,1 mm 5 m/S 735 mmHg 62%
    22:00 +21°C° 0,1 mm 6 m/S 735 mmHg 66%
    23:00 +20°C° 0,1 mm 7 m/S 736 mmHg 69%

    übermorgen, 22 August, Dienstag

    Zeit Temperatur Niederschläge Wind Luftdruck Luftfeuchtigkeit
    00:00 +18°C° 0,2 mm 7 m/S 736 mmHg 72%
    01:00 +17°C° 0,2 mm 6 m/S 736 mmHg 74%
    02:00 +16°C° 0,2 mm 6 m/S 736 mmHg 77%
    03:00 +16°C° 0 mm 6 m/S 736 mmHg 76%
    04:00 +15°C° 0 mm 6 m/S 736 mmHg 76%
    05:00 +15°C° 0 mm 6 m/S 736 mmHg 76%
    06:00 +15°C° 0,1 mm 6 m/S 737 mmHg 74%
    07:00 +15°C° 0,1 mm 6 m/S 737 mmHg 73%
    08:00 +16°C° 0,1 mm 6 m/S 738 mmHg 72%
    09:00 +17°C° 0,1 mm 6 m/S 738 mmHg 67%
    10:00 +19°C° 0,1 mm 6 m/S 738 mmHg 62%
    11:00 +20°C° 0,1 mm 6 m/S 738 mmHg 57%
    12:00 +21°C° 0 mm 6 m/S 738 mmHg 53%
    13:00 +22°C° 0 mm 6 m/S 738 mmHg 49%
    14:00 +23°C° 0 mm 5 m/S 738 mmHg 45%
    15:00 +23°C° 0 mm 5 m/S 738 mmHg 42%
    16:00 +25°C° 0 mm 5 m/S 738 mmHg 40%
    17:00 +25°C° 0 mm 4 m/S 738 mmHg 37%
    18:00 +23°C° 0 mm 4 m/S 738 mmHg 43%
    19:00 +21°C° 0 mm 3 m/S 738 mmHg 48%
    20:00 +20°C° 0 mm 2 m/S 738 mmHg 54%
    21:00 +19°C° 0 mm 3 m/S 738 mmHg 56%
    22:00 +19°C° 0 mm 3 m/S 738 mmHg 58%
    23:00 +18°C° 0 mm 3 m/S 738 mmHg 60%

    23 August, Mittwoch

    Zeit Temperatur Niederschläge Wind Luftdruck Luftfeuchtigkeit
    00:00 +18°C° 0 mm 3 m/S 738 mmHg 60%
    01:00 +18°C° 0 mm 3 m/S 738 mmHg 60%
    02:00 +17°C° 0 mm 3 m/S 739 mmHg 60%
    03:00 +17°C° 0 mm 2 m/S 739 mmHg 59%
    04:00 +17°C° 0 mm 2 m/S 739 mmHg 58%
    05:00 +18°C° 0 mm 2 m/S 739 mmHg 57%
    06:00 +19°C° 0 mm 2 m/S 739 mmHg 52%
    07:00 +20°C° 0 mm 2 m/S 740 mmHg 48%
    08:00 +21°C° 0 mm 3 m/S 740 mmHg 43%
    09:00 +24°C° 0 mm 3 m/S 740 mmHg 39%
    10:00 +26°C° 0 mm 3 m/S 740 mmHg 35%
    11:00 +27°C° 0 mm 3 m/S 740 mmHg 31%
    12:00 +28°C° 0 mm 4 m/S 740 mmHg 30%
    13:00 +28°C° 0 mm 4 m/S 740 mmHg 29%
    14:00 +29°C° 0 mm 4 m/S 740 mmHg 28%
    15:00 +28°C° 0 mm 4 m/S 740 mmHg 30%
    16:00 +28°C° 0 mm 4 m/S 740 mmHg 31%
    17:00 +28°C° 0 mm 4 m/S 740 mmHg 33%
    18:00 +26°C° 0 mm 3 m/S 740 mmHg 40%
    19:00 +24°C° 0 mm 3 m/S 740 mmHg 47%
    20:00 +21°C° 0 mm 3 m/S 740 mmHg 55%
    21:00 +20°C° 0,1 mm 2 m/S 741 mmHg 59%
    22:00 +19°C° 0,1 mm 2 m/S 741 mmHg 63%
    23:00 +19°C° 0,1 mm 2 m/S 741 mmHg 67%

    24 August, Donnerstag

    Zeit Temperatur Niederschläge Wind Luftdruck Luftfeuchtigkeit
    00:00 +19°C° 0 mm 2 m/S 741 mmHg 68%
    01:00 +19°C° 0 mm 1 m/S 741 mmHg 69%
    02:00 +19°C° 0 mm 1 m/S 741 mmHg 70%
    03:00 +19°C° 0 mm 1 m/S 741 mmHg 70%
    04:00 +18°C° 0 mm 1 m/S 742 mmHg 70%
    05:00 +18°C° 0 mm 1 m/S 742 mmHg 70%
    06:00 +20°C° 0 mm 1 m/S 742 mmHg 64%
    07:00 +21°C° 0 mm 1 m/S 743 mmHg 58%
    08:00 +23°C° 0 mm 1 m/S 743 mmHg 52%
    09:00 +25°C° 0 mm 2 m/S 743 mmHg 46%
    10:00 +27°C° 0 mm 2 m/S 744 mmHg 40%
    11:00 +28°C° 0 mm 2 m/S 744 mmHg 33%
    12:00 +29°C° 0 mm 2 m/S 744 mmHg 33%
    13:00 +29°C° 0 mm 3 m/S 744 mmHg 32%
    14:00 +29°C° 0 mm 3 m/S 743 mmHg 31%
    15:00 +29°C° 0 mm 4 m/S 743 mmHg 34%
    16:00 +28°C° 0 mm 4 m/S 743 mmHg 36%
    17:00 +28°C° 0 mm 4 m/S 743 mmHg 39%
    18:00 +26°C° 0 mm 4 m/S 743 mmHg 48%
    19:00 +24°C° 0 mm 3 m/S 744 mmHg 56%
    20:00 +21°C° 0 mm 3 m/S 744 mmHg 65%
    21:00 +20°C° 0 mm 2 m/S 744 mmHg 69%
    22:00 +19°C° 0 mm 2 m/S 744 mmHg 73%
    23:00 +19°C° 0 mm 2 m/S 744 mmHg 77%

    25 August, Freitag

    Zeit Temperatur Niederschläge Wind Luftdruck Luftfeuchtigkeit
    00:00 +19°C° 0 mm 1 m/S 744 mmHg 78%
    01:00 +19°C° 0 mm 1 m/S 744 mmHg 79%
    02:00 +19°C° 0 mm 1 m/S 744 mmHg 81%
    03:00 +18°C° 0 mm 1 m/S 744 mmHg 81%
    04:00 +18°C° 0 mm 1 m/S 744 mmHg 81%
    05:00 +18°C° 0 mm 1 m/S 744 mmHg 81%
    06:00 +20°C° 0 mm 1 m/S 745 mmHg 72%
    07:00 +21°C° 0 mm 2 m/S 745 mmHg 63%
    08:00 +24°C° 0 mm 2 m/S 745 mmHg 53%
    09:00 +26°C° 0 mm 3 m/S 746 mmHg 46%
    10:00 +27°C° 0 mm 4 m/S 746 mmHg 38%
    11:00 +29°C° 0 mm 4 m/S 746 mmHg 30%
    12:00 +29°C° 0 mm 5 m/S 746 mmHg 29%
    13:00 +29°C° 0 mm 5 m/S 745 mmHg 28%
    14:00 +30°C° 0 mm 5 m/S 745 mmHg 27%
    15:00 +29°C° 0 mm 5 m/S 745 mmHg 29%
    16:00 +28°C° 0 mm 5 m/S 745 mmHg 31%
    17:00 +27°C° 0 mm 5 m/S 744 mmHg 33%
    18:00 +25°C° 0 mm 4 m/S 744 mmHg 41%
    19:00 +22°C° 0 mm 4 m/S 744 mmHg 49%
    20:00 +20°C° 0 mm 3 m/S 745 mmHg 57%
    21:00 +19°C° 0 mm 3 m/S 744 mmHg 60%
    22:00 +19°C° 0 mm 2 m/S 744 mmHg 64%
    23:00 +18°C° 0 mm 2 m/S 744 mmHg 68%
    Mehr zeigen